Weather History for Whidbey Island, WA

Change the Weather History Date:

Friday, November 30, 2012

  Actual Average Record
Temperature  
Mean Temperature 50 °F -  
Max Temperature 53 °F 45 °F 57 °F (2008)
Min Temperature 48 °F 36 °F 21 °F (2014)
Degree Days  
Heating Degree Days 14    
Moisture  
Dew Point 45 °F    
Average Humidity 80    
Maximum Humidity 87    
Minimum Humidity 71    
Precipitation  
Precipitation 0.07 in - - ()
Sea Level Pressure  
Sea Level Pressure 29.38 in    
Wind  
Wind Speed 21 mph (SE)    
Max Wind Speed 32 mph    
Max Gust Speed 40 mph    
Visibility 9 miles    
Events Rain    
Averages and records for this station are not official NWS values.
T = Trace of Precipitation, MM = Missing Value Source: NWS Daily Summary

Daily Weather History Graph

Daily Weather History Graph

Search for Another Location

Airport:

Trip Planner

Search our weather history database for the weather conditions in past years. The results will help you decide how hot, cold, wet, or windy it might be!

Date:

Astronomy

Nov. 30, 2012 Rise Set
Actual Time 7:40 AM PST 4:18 PM PST
Civil Twilight 7:04 AM PST 4:54 PM PST
Nautical Twilight 6:25 AM PST 5:33 PM PST
Astronomical Twilight 5:47 AM PST 6:11 PM PST
Moon 6:19 PM PST (11/30) 9:15 AM PST (11/30)
Length of Visible Light 9h 49m
Length of Day
8h 38m
Waning Gibbous, 96% of the Moon is Illuminated
Nov 30
Waning Gibbous
Dec 6
Last Quarter
Dec 13
New
Dec 19
First Quarter
Dec 28
Full

Hourly Weather History & Observations

Time (PST) Temp. Dew Point Humidity Pressure Visibility Wind Dir Wind Speed Gust Speed Precip Events Conditions
12:56 AM 50.0 °F 42.1 °F 74% 29.41 in 10.0 mi SE 13.8 mph - N/A   Overcast
1:56 AM 51.1 °F 42.1 °F 71% 29.40 in 10.0 mi SE 25.3 mph 34.5 mph 0.00 in Rain Light Rain
2:56 AM 50.0 °F 43.0 °F 77% 29.38 in 10.0 mi ESE 20.7 mph 31.1 mph 0.00 in   Overcast
3:56 AM 48.9 °F 43.0 °F 80% 29.37 in 10.0 mi SE 23.0 mph - N/A   Overcast
4:56 AM 50.0 °F 43.0 °F 77% 29.36 in 10.0 mi SE 18.4 mph 29.9 mph N/A   Overcast
5:56 AM 51.1 °F 43.0 °F 74% 29.34 in 10.0 mi SE 25.3 mph 33.4 mph N/A   Overcast
6:56 AM 51.1 °F 43.0 °F 74% 29.36 in 10.0 mi SSE 17.3 mph 26.5 mph N/A   Overcast
7:24 AM 50.0 °F 42.8 °F 76% 29.35 in 8.0 mi SE 18.4 mph - 0.00 in Rain Light Rain
7:56 AM 48.9 °F 44.1 °F 83% 29.37 in 8.0 mi SE 18.4 mph - 0.01 in Rain Light Rain
8:56 AM 50.0 °F 45.0 °F 83% 29.38 in 10.0 mi SE 17.3 mph 25.3 mph 0.01 in Rain Light Rain
9:08 AM 50.0 °F 44.6 °F 82% 29.37 in 10.0 mi SE 20.7 mph 27.6 mph 0.00 in Rain Light Rain
9:24 AM 51.8 °F 44.6 °F 76% 29.37 in 10.0 mi SE 23.0 mph 27.6 mph 0.00 in   Overcast
9:56 AM 52.0 °F 45.0 °F 77% 29.40 in 10.0 mi SE 18.4 mph 28.8 mph 0.00 in   Overcast
10:10 AM 51.8 °F 44.6 °F 76% 29.38 in 10.0 mi SE 24.2 mph 28.8 mph N/A   Mostly Cloudy
10:17 AM 51.8 °F 44.6 °F 76% 29.39 in 10.0 mi SE 23.0 mph 29.9 mph 0.00 in Rain Light Rain
10:56 AM 53.1 °F 46.0 °F 77% 29.40 in 8.0 mi SSE 27.6 mph 34.5 mph 0.00 in Rain Light Rain
11:56 AM 51.1 °F 46.9 °F 86% 29.40 in 8.0 mi SE 17.3 mph 25.3 mph 0.01 in Rain Light Rain
12:11 PM 53.6 °F 46.4 °F 77% 29.38 in 10.0 mi SSE 24.2 mph 36.8 mph 0.00 in Rain Light Rain
12:56 PM 53.1 °F 46.9 °F 80% 29.39 in 10.0 mi SSE 26.5 mph 38.0 mph 0.00 in   Overcast
1:27 PM 53.6 °F 46.4 °F 77% 29.38 in 10.0 mi SE 26.5 mph 35.7 mph 0.00 in Rain Light Rain
1:56 PM 51.1 °F 46.9 °F 86% 29.40 in 7.0 mi SE 24.2 mph 32.2 mph 0.01 in Rain Light Rain
2:56 PM 51.1 °F 46.9 °F 86% 29.39 in 8.0 mi SSE 23.0 mph 32.2 mph 0.01 in Rain Light Rain
3:56 PM 51.1 °F 46.9 °F 86% 29.41 in 10.0 mi SSE 21.9 mph 32.2 mph 0.00 in   Overcast
4:30 PM 50.0 °F 46.4 °F 87% 29.39 in 8.0 mi SE 23.0 mph 32.2 mph 0.00 in Rain Light Rain
4:56 PM 50.0 °F 46.0 °F 86% 29.41 in 10.0 mi SE 26.5 mph 36.8 mph 0.00 in Rain Light Rain
5:56 PM 51.1 °F 46.9 °F 86% 29.40 in 10.0 mi SSE 27.6 mph 34.5 mph 0.01 in Rain Light Rain
6:20 PM 51.8 °F 46.4 °F 82% 29.39 in 10.0 mi SE 26.5 mph 32.2 mph 0.00 in   Overcast
6:56 PM 50.0 °F 45.0 °F 83% 29.40 in 10.0 mi SE 23.0 mph 31.1 mph 0.00 in   Overcast
7:56 PM 48.9 °F 44.1 °F 83% 29.39 in 10.0 mi SSE 29.9 mph 40.3 mph N/A   Mostly Cloudy
8:56 PM 50.0 °F 44.1 °F 80% 29.38 in 10.0 mi SE 32.2 mph 40.3 mph N/A   Overcast
9:56 PM 50.0 °F 45.0 °F 83% 29.38 in 10.0 mi SE 23.0 mph 36.8 mph N/A   Overcast
10:56 PM 51.1 °F 44.1 °F 77% 29.38 in 10.0 mi SE 25.3 mph 33.4 mph 0.00 in Rain Light Rain
11:56 PM 48.9 °F 45.0 °F 86% 29.38 in 6.0 mi SE 19.6 mph 31.1 mph 0.01 in Rain Light Rain